GFSNW_sfc_30mbdewp_144.txt.gz
Dewpoint
51 50 50 49 48 45 45 42 24 42 43 30 31 28 28 30 30 31 29 27 26 22 21 20 22 22 23 29 29 21 26 25 18 16 27 28 25 18 20 9 6 14 12 1
51 51 50 48 50 45 40 39 35 43 39 21 26 29 30 32 30 30 29 27 28 26 24 20 26 27 30 30 30 26 25 20 12 11 17 25 23 25 22 19 19 12 3 -1
51 51 50 48 48 47 40 36 27 35 32 31 26 25 27 26 32 30 30 28 28 24 22 25 27 28 30 31 32 31 27 21 14 3 11 21 17 21 24 20 17 14 11 9
50 50 50 49 48 48 42 35 26 32 24 26 26 27 28 26 24 31 31 27 27 25 21 22 25 30 30 31 33 31 27 12 21 20 20 21 18 18 21 22 21 13 8 13
49 49 50 50 49 45 40 32 31 31 28 28 25 26 26 26 27 26 26 25 26 25 22 21 22 28 27 24 32 28 29 13 24 17 21 22 20 20 19 20 21 21 19 17
48 49 49 49 49 44 40 39 37 32 26 25 22 24 25 26 26 28 29 26 26 25 27 28 28 28 28 28 28 28 28 23 21 8 23 18 5 12 18 20 19 19 17 18
47 48 49 49 48 45 41 37 37 32 28 24 21 25 26 28 28 26 29 29 26 30 30 28 27 26 27 29 31 30 28 25 24 17 16 -4 2 19 19 18 19 20 20 22
46 47 48 49 48 47 39 40 39 36 32 27 25 27 28 29 29 28 28 31 32 32 29 21 18 20 19 24 28 29 29 27 21 14 16 13 13 18 16 16 15 21 21 22
46 46 48 48 47 47 42 41 40 38 34 30 26 26 28 26 25 26 30 33 34 32 27 20 12 10 16 19 24 28 30 28 22 21 15 4 11 19 22 20 13 22 22 23
47 45 47 48 47 46 42 41 42 40 34 36 28 24 25 29 27 26 30 31 30 31 25 20 15 15 18 15 18 22 26 26 25 22 19 19 21 20 22 13 14 24 24 24
48 46 46 48 47 46 43 42 41 38 36 36 35 33 29 28 28 26 29 29 30 29 22 20 21 21 19 16 21 22 21 22 23 25 22 15 23 21 17 18 25 24 24 24
48 48 47 48 48 45 45 42 43 41 34 34 37 35 35 35 33 32 32 29 31 28 25 27 26 22 21 18 14 25 18 20 20 23 20 22 24 23 24 25 24 24 25 26
48 49 49 49 47 46 44 41 41 41 36 35 36 35 34 34 33 34 31 32 31 32 33 30 27 24 23 19 19 20 23 25 23 24 23 25 26 25 25 25 25 26 27 27
48 49 50 50 48 46 45 42 42 38 36 30 31 33 32 33 33 34 35 33 35 35 33 29 27 25 27 25 25 24 23 24 23 23 23 24 26 25 25 25 26 25 25 24
48 49 50 50 48 47 45 43 43 42 35 30 34 33 33 33 33 34 34 34 33 32 29 29 28 31 31 29 28 27 26 25 23 22 23 23 23 26 25 24 23 23 20 17
49 49 50 50 48 46 43 37 41 41 40 32 25 33 32 34 34 34 34 34 33 33 31 30 32 33 31 27 26 28 29 28 27 26 26 26 26 26 24 23 21 20 17 13
49 49 50 50 48 45 39 36 39 41 40 34 25 28 32 32 32 33 33 33 33 32 31 31 30 30 31 28 26 27 30 30 28 28 25 24 23 23 22 19 17 19 15 16
49 49 51 50 47 43 39 41 41 41 38 36 25 22 28 31 30 30 32 31 32 32 31 32 31 31 30 27 28 30 30 30 28 26 25 26 23 20 17 16 16 14 13 14
50 51 50 45 43 40 40 42 41 41 37 28 27 19 16 31 30 30 31 32 28 31 31 30 31 29 27 29 29 29 29 29 29 25 21 22 20 16 15 15 15 13 12 12
49 44 40 36 39 43 41 38 36 35 34 34 29 27 27 29 29 28 28 29 27 25 27 30 28 27 29 29 27 27 28 29 26 19 18 18 16 15 15 14 14 12 12 14
41 36 33 40 43 37 35 32 31 30 28 31 30 28 27 30 26 27 30 28 28 22 22 25 23 23 25 25 27 28 28 30 24 20 19 17 16 15 12 11 13 15 16 15
39 38 39 38 34 31 30 27 28 26 25 27 27 29 29 29 33 30 30 27 26 20 26 24 19 21 25 25 26 22 24 21 19 17 15 14 13 13 13 13 13 14 16 18
37 34 31 31 29 24 24 20 22 23 25 27 29 28 28 30 31 30 28 24 22 25 22 19 20 23 24 26 23 19 18 17 16 15 15 14 13 15 15 15 17 17 17 18
34 30 25 27 23 23 22 20 21 23 26 28 27 27 26 28 27 28 23 24 25 21 17 17 21 22 22 25 25 18 16 14 13 14 16 17 17 18 19 19 19 19 19 19
31 30 27 25 23 23 23 23 27 28 29 28 27 27 26 26 25 27 25 22 19 19 17 18 19 22 21 20 24 23 21 20 17 17 18 19 21 21 21 22 22 20 20 21
28 26 23 23 22 22 24 26 28 29 28 28 27 25 24 23 24 23 20 20 17 17 21 20 21 20 19 18 20 20 20 20 20 18 17 18 18 18 19 20 20 20 21 21
25 23 25 23 22 22 25 27 29 30 27 25 25 22 20 24 21 21 23 21 22 25 26 24 22 21 21 21 21 20 20 19 18 18 18 18 19 20 19 19 20 21 22 22

GFSNW_sfc_30mbdewp_150.txt.gz
Dewpoint
50 50 50 50 49 47 43 39 23 39 38 26 29 27 28 30 29 31 28 27 24 20 21 20 21 20 23 30 29 19 26 18 11 15 27 28 23 21 19 8 4 14 9 3
50 50 50 50 49 47 39 35 34 40 32 20 25 29 29 32 30 30 28 26 26 25 23 18 25 26 30 32 29 23 22 15 7 8 16 24 24 26 19 16 15 11 4 -2
48 50 50 50 50 48 39 32 21 28 30 29 25 23 24 25 31 29 29 27 26 23 22 26 25 26 30 32 30 32 24 19 8 -2 6 18 20 22 22 16 12 9 7 5
46 49 49 50 49 47 39 29 28 32 21 25 26 25 26 22 21 29 29 25 26 22 19 22 24 29 29 31 32 28 20 10 17 18 17 21 20 17 22 21 17 11 9 10
45 48 49 49 49 45 36 27 28 28 27 27 23 25 26 22 26 26 24 23 26 24 20 19 18 27 26 22 29 26 25 13 22 14 21 21 19 19 20 21 23 22 20 19
45 46 48 49 49 43 36 38 36 30 26 24 22 22 25 25 26 28 29 26 25 24 25 27 28 28 28 28 25 24 22 19 14 3 18 12 1 7 16 19 21 19 15 15
48 45 48 49 49 43 38 37 35 30 26 24 19 24 26 26 26 23 28 28 24 29 30 28 24 24 29 30 29 29 24 21 20 13 11 -6 -1 13 16 16 17 19 18 18
47 45 46 48 49 45 39 39 38 34 28 28 25 26 27 29 28 27 28 31 31 31 25 19 16 17 18 23 28 28 27 24 18 11 12 9 11 17 15 14 11 17 18 19
47 47 45 47 48 47 41 40 39 37 31 25 26 27 28 26 26 27 30 33 33 29 23 18 16 15 14 16 23 29 28 26 20 19 12 9 10 19 20 20 11 20 21 20
47 47 45 46 48 47 42 40 40 39 32 33 27 25 25 28 26 26 29 31 31 29 22 18 17 15 18 15 17 23 26 26 24 22 19 19 20 20 21 12 12 21 23 23
48 47 48 46 47 47 43 41 40 37 33 34 36 32 28 28 28 26 29 28 29 27 22 20 20 17 18 17 19 22 21 22 23 24 23 16 24 21 16 17 22 23 24 24
49 47 48 47 47 47 44 41 42 40 34 32 37 35 35 34 32 29 31 28 29 27 24 23 23 23 22 18 17 23 18 22 20 24 20 23 23 21 22 23 23 23 24 25
49 48 48 48 48 47 44 40 40 38 35 33 36 35 34 34 33 34 30 32 32 30 29 26 26 23 23 20 19 19 22 24 21 21 19 23 25 26 26 25 25 25 25 25
50 49 48 48 48 48 44 42 41 36 34 31 30 33 33 33 33 34 34 33 35 34 32 29 28 26 26 23 23 20 21 24 22 23 23 23 23 25 25 26 26 26 26 26
51 50 49 48 49 48 45 43 42 40 35 31 31 34 33 34 33 34 34 34 33 32 30 28 28 28 27 28 28 26 26 24 22 22 24 24 24 25 26 26 26 26 26 25
49 51 49 49 49 47 43 40 40 42 39 33 30 31 32 33 33 34 33 33 33 31 29 28 29 31 30 27 26 27 28 28 26 26 29 28 28 27 26 26 26 26 25 23
46 49 50 49 49 45 41 38 38 42 38 33 29 26 31 32 33 33 33 32 32 31 30 30 29 30 32 29 26 27 28 30 30 30 28 27 26 25 24 23 24 22 16 15
43 46 50 50 49 45 42 42 43 40 36 32 28 25 27 31 30 30 32 31 31 31 30 30 30 30 29 27 29 29 30 30 29 29 28 26 24 22 20 20 18 15 13 13
42 45 50 49 44 41 42 43 42 41 35 31 27 25 22 30 29 30 31 31 28 30 29 29 30 28 26 28 29 29 30 28 27 27 28 25 23 22 18 18 15 12 11 9
42 45 43 38 41 44 41 40 37 37 36 35 30 25 23 28 28 28 28 28 27 25 27 30 28 27 29 30 29 27 25 26 28 26 26 24 22 19 16 15 13 9 8 11
41 38 34 41 43 40 38 33 31 32 30 32 32 27 26 29 26 26 28 26 25 23 22 25 23 23 25 26 24 26 24 22 24 28 28 24 22 20 15 14 11 11 13 14
39 38 40 40 35 33 31 28 30 30 29 31 29 28 29 29 31 28 29 26 26 22 24 22 20 22 23 24 25 21 19 20 21 20 19 18 19 17 14 11 13 15 16 17
39 34 32 31 30 26 25 24 26 26 27 29 29 28 30 31 32 29 27 24 22 25 22 20 20 21 23 23 24 17 16 16 15 14 14 13 13 14 14 15 17 19 18 18
34 32 27 27 24 26 27 24 24 26 26 29 28 26 27 29 28 27 24 24 23 19 18 17 18 21 22 24 24 17 14 12 12 13 15 16 17 17 18 19 19 19 18 19
31 32 26 26 26 23 22 22 24 26 29 28 26 26 26 26 25 25 23 21 19 18 16 17 19 21 23 22 22 21 20 19 18 19 18 19 19 19 18 18 19 19 20 20
32 31 27 24 26 23 22 25 26 28 29 27 26 24 22 22 23 22 20 18 16 17 19 20 20 20 17 15 16 17 18 18 18 19 19 19 18 18 18 19 18 18 19 18
28 25 26 25 24 24 24 27 27 29 26 22 23 20 19 23 21 20 20 19 18 19 20 21 19 16 15 17 19 20 20 20 20 20 20 19 20 19 17 16 16 18 19 19

GFSNW_sfc_30mbdewp_153.txt.gz
Dewpoint
48 50 50 49 50 48 42 37 24 37 36 25 29 26 28 30 29 31 28 27 23 20 22 21 22 20 26 31 30 21 26 17 12 15 27 28 23 19 15 2 2 12 7 0
47 49 49 49 49 47 39 33 33 38 31 19 25 29 29 31 29 29 27 27 26 25 22 19 25 26 30 31 29 24 21 13 6 9 15 24 24 24 18 14 15 10 2 -5
46 48 49 50 49 47 38 28 19 28 29 28 24 22 23 24 31 29 29 27 25 22 22 26 24 25 30 31 31 31 22 18 6 -3 6 19 19 23 20 15 10 8 7 2
46 47 49 50 49 47 37 29 27 31 20 25 26 24 24 20 19 28 27 25 24 21 18 20 24 28 27 30 31 27 18 9 16 17 17 20 19 17 22 18 15 8 7 8
47 46 48 49 49 45 35 27 27 27 27 27 22 24 25 21 26 24 22 22 25 23 19 17 17 25 24 20 27 25 23 14 19 12 19 20 17 18 19 21 22 21 20 19
48 46 47 49 48 41 35 37 35 29 26 23 20 22 25 25 25 28 28 26 25 24 26 27 28 28 28 27 24 23 20 17 11 0 16 12 0 3 15 19 21 20 13 12
47 46 47 48 49 41 37 36 35 30 25 24 19 24 26 26 26 23 29 27 23 29 30 27 24 28 29 29 29 27 21 18 18 8 8 4 0 10 14 15 16 20 19 18
47 47 46 48 48 44 38 38 37 34 26 29 26 26 27 29 28 27 28 31 31 30 24 19 16 16 18 24 27 28 26 22 17 11 9 10 12 16 15 13 12 16 17 18
47 46 46 46 48 46 40 39 39 36 30 23 27 27 28 25 25 27 30 33 33 27 21 17 16 14 14 15 22 29 27 24 18 17 10 9 11 18 19 19 11 18 21 20
48 47 47 46 48 46 41 39 40 38 32 32 27 25 26 28 26 25 29 31 30 28 22 18 17 16 17 14 16 22 26 26 23 19 17 17 20 19 21 12 12 19 23 22
49 47 47 46 47 46 42 40 40 36 32 33 35 32 28 28 28 25 29 28 29 26 22 20 20 18 17 17 19 22 21 22 23 24 22 15 23 21 16 16 21 22 23 23
50 48 47 48 47 46 43 40 42 39 34 32 37 35 35 33 32 29 30 27 28 27 23 23 22 21 21 18 16 23 17 22 20 23 19 24 23 21 21 22 22 23 23 24
50 49 48 48 48 47 44 40 39 38 34 33 35 35 34 34 33 34 29 31 31 29 28 25 24 22 23 20 19 19 21 24 22 20 20 23 25 26 26 26 25 25 25 25
51 51 49 48 48 48 44 42 40 36 34 31 30 33 33 33 33 34 34 33 34 33 32 28 27 25 25 23 22 20 21 23 22 22 22 23 23 24 25 26 26 26 26 26
46 50 50 49 49 48 45 43 41 39 35 31 31 34 33 33 33 33 34 34 33 32 30 29 28 28 27 27 27 25 25 23 22 21 23 23 24 26 28 27 27 27 26 26
44 46 50 50 49 47 44 40 40 41 38 34 32 31 32 33 33 33 33 33 32 31 30 29 29 30 29 26 25 27 27 27 25 25 28 29 29 28 26 25 25 26 27 25
41 44 47 50 49 46 41 37 38 42 38 34 32 28 31 32 33 32 32 32 31 31 30 29 29 29 31 28 26 27 28 28 30 30 30 28 27 26 24 23 24 23 17 17
40 41 44 47 49 45 43 42 43 39 35 32 29 27 26 31 30 29 31 31 31 31 30 30 29 29 29 27 29 29 29 30 29 29 28 27 27 25 23 20 18 15 14 14
39 41 43 47 45 42 42 44 42 41 35 31 28 27 23 30 29 29 30 30 28 30 29 28 29 28 25 28 28 29 29 29 28 28 27 28 27 25 23 19 17 14 13 11
41 41 43 39 41 45 43 40 38 37 37 35 31 25 25 28 27 28 28 28 27 25 27 31 28 26 28 29 30 30 28 25 26 26 25 26 25 23 20 17 15 13 11 11
39 38 35 41 44 41 39 33 32 32 31 33 32 26 26 29 26 27 28 26 25 22 22 25 24 23 24 26 25 25 26 23 22 24 25 27 27 23 19 15 12 11 12 14
39 38 40 40 35 33 31 29 31 29 30 32 30 28 29 28 29 27 28 25 25 22 24 23 21 22 24 25 24 23 19 20 21 21 21 18 19 20 16 12 13 15 16 17
39 35 33 32 31 25 25 23 26 28 29 30 29 28 30 31 31 29 28 24 22 25 23 20 20 21 23 23 24 17 16 16 15 14 13 14 13 14 14 16 17 18 18 18
33 30 26 26 25 25 26 25 26 28 28 30 29 28 29 31 29 28 25 24 23 20 17 17 19 21 22 23 22 15 12 12 12 13 15 16 17 17 18 17 18 18 17 18
31 31 24 24 26 23 23 23 25 26 30 28 27 26 27 27 26 26 22 20 19 19 17 17 18 20 22 23 21 18 18 18 16 18 17 18 18 18 17 18 19 19 18 18
31 31 27 26 25 25 23 24 26 29 29 27 26 25 25 25 25 22 21 19 17 17 20 20 20 22 22 21 20 18 17 17 17 18 19 19 18 18 18 19 18 17 17 17
30 27 28 26 25 26 25 26 27 30 27 25 25 24 23 24 21 20 21 19 18 19 19 21 22 20 15 14 15 17 18 19 19 19 20 20 20 18 17 15 14 17 18 19

GFSNW_sfc_30mbdewp_156.txt.gz
Dewpoint
47 47 49 49 49 48 42 38 29 40 37 30 30 29 28 31 29 31 28 27 24 21 22 22 22 20 26 31 30 23 24 17 17 16 26 28 24 18 13 6 8 11 8 6
47 47 49 49 49 48 41 34 33 39 35 24 28 29 30 31 29 30 28 27 26 25 23 21 25 27 30 31 29 23 21 14 12 11 18 24 22 23 18 15 15 11 3 -1
48 47 49 49 49 48 38 30 23 30 31 29 25 24 23 25 31 29 28 27 25 23 23 26 24 25 30 32 32 30 24 17 9 2 8 20 19 23 19 16 13 7 5 0
49 47 48 49 49 46 38 32 28 31 24 26 26 25 23 19 20 28 27 25 24 21 19 19 24 28 27 30 30 26 19 13 15 16 16 19 19 19 22 17 14 5 7 9
48 47 48 49 48 43 37 31 30 28 28 27 23 24 25 22 26 24 22 24 25 23 19 20 18 25 23 21 26 24 22 20 19 14 20 19 16 16 17 20 20 19 17 16
47 47 47 49 47 41 36 38 35 30 26 23 20 23 26 25 26 29 28 26 25 24 27 28 28 28 28 27 23 23 20 19 14 5 15 12 7 6 14 17 19 17 10 11
47 47 46 48 48 41 38 37 36 31 25 25 20 25 27 26 26 24 29 28 23 30 29 28 26 29 29 29 28 26 20 19 20 13 11 9 6 11 15 14 14 18 18 18
47 46 46 47 48 44 40 39 37 34 25 29 26 26 28 29 29 28 29 31 31 30 24 20 18 17 19 24 28 29 25 21 18 16 11 12 13 15 16 15 14 17 18 19
48 46 46 46 48 45 41 41 40 37 29 24 27 27 28 25 26 27 31 33 32 27 22 18 17 14 15 16 22 29 27 24 19 17 12 9 12 18 20 19 13 18 20 22
49 47 47 46 47 45 42 40 41 39 32 32 28 27 27 28 27 26 29 31 30 28 22 19 18 18 18 15 17 22 26 26 22 18 17 16 18 20 22 14 14 20 23 23
49 48 47 47 47 46 43 41 40 37 34 33 35 31 29 29 29 26 29 29 29 27 22 21 21 19 18 17 19 22 21 22 23 23 21 16 23 21 17 18 22 23 23 24
51 49 48 48 47 46 44 41 42 40 36 34 37 36 35 34 31 30 31 28 28 28 25 24 22 20 20 18 15 23 17 22 21 23 20 25 24 23 22 23 23 25 25 26
51 50 49 48 48 47 44 42 41 39 36 35 35 35 35 34 34 35 30 31 31 29 30 26 25 23 24 21 20 20 21 24 22 20 21 24 25 26 26 26 26 27 28 28
47 51 50 49 49 48 44 43 41 37 35 32 31 34 33 34 34 34 34 33 34 33 33 30 28 26 26 24 23 21 22 23 22 22 22 23 24 25 26 27 28 28 28 28
44 46 49 51 49 49 45 44 42 40 36 32 32 34 34 34 33 33 34 34 34 33 31 31 29 29 27 27 27 25 24 23 21 19 23 23 24 26 29 28 28 26 26 27
41 44 46 48 50 48 45 42 42 41 39 37 33 32 32 33 34 34 33 33 33 33 31 31 30 30 30 28 26 27 27 27 26 25 27 28 29 30 28 25 25 25 26 27
39 41 43 45 50 47 42 38 38 42 39 36 33 32 31 32 33 33 33 33 33 32 31 30 30 30 32 30 24 24 27 28 29 30 30 29 29 28 27 24 23 23 19 20
37 39 40 43 47 46 44 43 43 40 37 34 32 30 27 32 30 30 32 32 32 32 31 30 30 30 31 28 29 29 29 30 30 30 30 29 28 28 27 24 22 18 16 15
38 40 41 45 45 42 43 45 42 41 36 33 30 29 25 31 29 31 31 31 29 31 30 29 30 29 26 29 29 29 30 29 28 29 28 27 27 27 27 25 21 18 15 14
39 40 41 39 41 45 44 41 38 38 38 35 31 28 27 30 29 28 29 29 28 26 28 31 28 26 29 29 30 30 30 30 28 25 24 26 27 25 23 21 19 17 14 12
36 37 36 42 44 41 40 33 32 33 31 33 33 28 27 29 27 28 29 27 27 23 25 26 25 24 25 27 29 29 27 26 26 26 25 26 27 28 24 18 16 13 13 15
39 38 41 40 36 33 32 29 31 30 30 32 32 28 29 28 30 28 28 26 25 23 26 24 22 25 26 26 25 25 22 20 22 24 24 20 20 21 19 15 15 16 18 19
38 36 33 33 32 25 26 24 27 28 32 32 29 29 30 30 31 29 29 25 24 25 24 21 23 23 23 26 25 21 18 18 17 16 17 15 14 15 14 16 18 18 17 18
31 29 25 25 25 26 26 25 27 30 32 31 31 30 30 31 29 29 26 26 23 21 20 19 22 23 22 24 23 16 16 14 14 15 17 17 17 18 19 18 18 18 18 18
30 29 24 25 27 25 23 24 27 27 32 30 28 28 29 29 28 28 24 21 20 21 20 21 22 21 23 23 21 14 14 15 17 17 18 18 19 18 18 18 19 19 19 18
31 30 26 26 25 24 24 24 26 30 31 28 27 27 27 27 27 23 22 20 19 20 22 23 21 22 23 23 19 18 18 17 17 19 19 19 19 19 18 19 19 18 17 17
29 26 31 27 25 25 25 25 27 30 29 27 27 25 24 26 23 22 22 21 22 21 22 22 22 23 23 21 19 17 18 17 17 18 19 19 21 20 18 16 17 18 19 19

GFSNW_sfc_30mbdewp_159.txt.gz
Dewpoint
49 48 48 49 50 50 43 41 31 42 38 32 29 29 29 30 28 30 28 27 23 20 21 20 18 18 25 30 29 20 20 15 16 17 24 26 24 17 12 7 11 10 7 8
49 48 48 49 49 49 42 31 30 41 38 29 26 29 29 30 27 28 27 26 26 25 22 20 22 24 29 30 29 25 20 14 13 12 19 23 20 20 17 13 13 11 5 4
49 48 48 49 49 48 42 31 31 30 30 29 24 23 22 24 31 27 28 26 24 22 20 23 22 23 29 30 30 31 25 16 13 8 15 17 17 19 17 12 13 8 6 0
48 49 48 48 49 46 42 33 30 31 25 23 24 23 21 19 21 25 25 24 23 20 17 17 21 24 24 27 27 24 21 16 17 15 16 18 18 18 19 15 14 6 6 9
48 48 47 48 49 45 39 33 30 29 26 26 22 23 23 22 24 25 21 23 24 21 18 21 17 21 18 20 22 21 20 21 18 15 17 16 14 14 15 18 18 16 15 12
48 47 47 48 48 43 35 37 35 32 26 23 21 23 25 25 25 29 28 26 24 24 27 28 28 28 27 26 22 20 18 18 16 10 12 11 11 10 12 14 17 14 10 13
48 47 46 47 48 43 40 38 37 31 23 25 21 26 27 26 26 25 28 28 23 30 30 28 27 27 27 27 27 25 18 17 20 18 15 13 8 12 13 14 13 15 16 17
49 46 46 47 48 44 40 40 39 33 21 28 26 26 27 28 28 28 28 31 31 29 26 22 19 19 20 22 27 27 24 19 19 20 14 14 13 15 16 16 15 16 17 19
49 47 46 46 47 45 42 41 41 38 29 23 27 27 27 24 25 28 31 33 31 29 23 20 18 13 16 17 22 28 27 24 19 16 14 8 14 17 19 19 14 19 20 21
50 48 46 46 47 45 43 42 43 40 31 32 29 26 26 28 27 26 29 31 30 30 23 20 18 17 18 14 16 22 25 24 21 18 16 16 16 19 21 15 15 21 22 23
51 49 47 47 47 46 44 43 42 40 34 34 35 30 29 29 29 24 30 29 30 27 23 21 21 20 18 17 18 20 21 21 21 21 19 17 21 21 18 20 23 24 24 25
51 50 49 47 47 46 45 42 43 41 38 36 38 37 35 34 33 31 32 30 29 28 25 25 24 21 20 17 11 21 17 19 19 21 19 24 23 22 23 24 25 25 26 28
51 51 50 48 48 47 45 44 43 41 37 36 36 36 35 35 34 35 32 31 32 30 31 27 26 24 24 18 18 20 21 22 20 21 16 23 25 25 25 26 26 27 29 29
46 49 51 50 49 49 45 44 44 40 37 34 32 34 34 34 34 34 35 34 34 33 33 30 28 25 26 21 23 21 21 23 20 21 21 21 22 24 25 27 29 29 29 28
43 45 47 49 50 50 47 46 44 42 38 35 34 35 34 34 34 34 34 35 34 33 32 33 30 30 28 27 27 25 23 20 19 18 19 22 22 26 29 29 29 28 27 27
40 41 44 46 50 48 46 42 46 43 41 39 35 33 33 34 34 34 34 34 34 34 32 32 32 32 30 28 24 24 23 24 25 23 25 26 27 29 30 28 27 26 26 26
38 39 40 43 47 48 43 40 41 43 42 39 35 35 32 33 34 33 34 34 34 34 33 32 31 30 32 31 24 22 25 26 26 28 28 28 30 29 28 27 26 25 22 21
37 38 40 40 44 47 44 44 43 42 40 38 34 33 29 33 31 31 33 33 33 33 32 32 30 31 31 29 28 27 27 28 29 30 30 30 29 28 28 28 26 23 21 18
39 39 40 43 44 42 43 44 43 43 38 35 34 31 29 31 31 32 32 32 30 32 30 30 31 29 27 28 28 28 29 30 29 30 29 29 28 27 27 27 27 24 21 16
41 40 41 38 42 45 44 42 39 39 39 36 32 32 28 31 30 30 30 30 29 27 28 31 29 27 29 29 30 30 30 30 30 28 27 26 27 28 25 23 23 21 19 15
37 37 36 42 45 42 39 34 32 33 31 33 34 31 28 30 29 29 30 29 28 25 27 26 26 25 26 27 28 29 30 31 29 27 26 26 27 28 27 20 18 16 15 17
38 39 41 41 36 34 32 31 32 30 30 32 32 31 30 29 30 30 29 28 27 24 27 25 23 26 28 26 27 28 28 26 23 24 27 25 22 25 22 17 17 19 19 19
38 36 33 33 32 26 27 25 28 28 32 32 31 29 30 30 32 30 29 26 25 27 24 23 24 27 25 27 26 25 21 22 22 20 19 17 17 17 16 17 18 17 16 16
31 29 24 26 23 26 28 28 30 33 34 33 32 31 31 32 29 31 27 29 25 22 21 22 26 25 25 26 26 20 20 18 19 19 18 19 20 19 19 18 18 17 16 17
29 29 23 24 26 29 26 27 30 30 34 33 30 31 31 30 30 30 27 22 22 23 22 25 27 25 25 25 22 19 17 17 17 18 18 18 19 18 17 19 20 19 19 17
30 29 26 27 27 27 26 28 29 32 33 32 33 30 28 28 29 25 24 22 21 24 26 28 23 23 25 24 19 15 16 18 19 20 20 20 20 19 20 20 19 18 17 17
28 26 30 28 28 29 28 27 28 32 32 29 30 26 25 29 26 24 25 24 27 26 27 26 24 25 24 23 19 19 17 17 17 18 19 20 22 22 19 16 18 19 20 20

GFSNW_sfc_30mbdewp_162.txt.gz
Dewpoint
49 49 48 49 50 49 47 43 36 44 42 36 30 30 30 29 28 30 28 27 25 22 21 20 20 21 27 29 29 21 19 19 18 19 24 25 25 20 15 12 7 9 7 10
49 49 49 49 49 48 44 37 31 44 39 31 27 29 28 29 28 28 28 25 26 24 22 22 23 25 29 30 28 26 24 17 11 13 20 23 21 20 17 13 15 10 7 7
49 49 48 49 49 48 45 35 34 35 33 29 25 23 23 25 30 27 27 25 25 21 18 23 22 25 29 30 28 29 27 17 13 12 19 20 16 20 18 16 13 11 9 6
50 49 48 48 49 48 44 35 31 30 28 25 23 23 20 19 23 24 24 24 23 20 17 17 20 22 26 27 25 24 22 18 16 17 17 17 18 19 18 15 16 8 12 12
49 48 47 48 48 47 42 36 33 30 26 25 24 23 23 22 24 27 22 24 23 24 22 24 22 24 23 22 22 21 20 19 18 13 15 15 11 15 18 19 17 17 16 13
49 47 47 48 47 45 38 38 36 34 26 24 22 25 25 26 25 29 28 27 24 26 27 28 28 27 27 26 24 20 18 19 17 11 10 12 12 12 13 15 17 16 9 16
49 47 46 47 48 45 42 40 39 34 26 25 23 26 26 26 27 26 28 29 26 30 30 28 27 27 27 27 27 25 18 18 21 16 17 13 10 13 15 14 15 17 15 17
50 48 46 46 47 45 42 41 41 36 29 27 25 26 27 28 28 29 29 31 31 29 27 25 20 20 20 23 27 27 25 21 20 20 15 14 9 13 12 15 16 17 16 19
52 48 46 45 47 46 44 43 43 40 34 27 27 26 27 27 26 28 31 32 31 29 26 21 19 16 16 18 23 28 27 24 21 16 12 8 15 17 19 19 15 19 21 21
53 49 47 46 46 46 45 43 43 42 34 32 30 28 28 28 27 28 30 31 30 30 25 21 19 18 18 15 16 22 25 24 20 19 16 17 18 19 21 13 15 21 22 23
53 50 48 47 46 46 45 44 43 41 37 35 36 32 30 30 29 27 31 29 30 28 23 22 23 21 19 17 18 21 21 21 21 21 18 11 21 20 17 21 23 23 24 26
53 51 49 47 47 46 45 44 43 41 39 38 38 37 35 34 33 33 32 31 29 31 27 25 24 21 20 18 13 21 14 20 20 20 21 24 22 22 23 24 25 25 26 28
51 51 50 48 48 47 45 45 44 42 39 39 36 36 35 35 34 35 33 32 33 31 32 29 28 22 24 20 19 19 20 23 20 20 18 24 25 24 24 25 26 27 29 29
46 49 51 50 49 49 46 44 45 42 38 33 34 34 34 34 35 35 35 34 34 33 34 31 29 26 26 22 23 22 22 22 21 21 21 21 22 24 25 26 28 29 29 28
42 44 46 48 50 49 47 46 45 43 39 36 35 34 34 34 34 34 34 35 34 33 33 32 30 31 28 28 27 25 23 21 19 18 20 22 25 26 28 28 29 28 27 27
39 41 42 44 47 50 46 41 46 44 42 40 34 34 33 34 34 34 34 35 34 34 33 33 33 32 29 28 27 27 24 24 23 22 26 27 28 29 30 29 28 27 26 27
39 38 40 41 46 48 43 40 42 44 43 39 35 35 32 34 34 34 34 34 34 34 34 32 32 31 30 31 26 25 24 25 26 28 28 27 29 29 28 27 27 26 24 21
41 39 39 40 43 47 44 44 44 44 41 39 34 32 29 33 32 32 33 33 33 34 33 32 31 31 31 28 29 28 27 28 28 29 29 30 29 29 28 29 28 25 23 20
41 41 41 44 44 42 43 44 44 43 40 36 34 31 29 32 31 32 32 33 30 32 31 31 31 30 27 27 27 28 29 29 29 30 30 30 28 28 27 27 27 27 25 18
40 40 40 37 41 45 44 42 39 39 39 37 32 34 29 31 31 30 30 31 30 27 28 31 29 26 29 29 30 31 30 31 30 28 28 29 27 26 27 24 23 23 21 16
38 36 36 42 45 41 39 35 32 33 31 33 34 33 29 31 29 29 31 29 29 24 27 27 25 25 25 27 28 29 30 31 31 30 27 27 28 28 26 21 19 17 16 15
38 38 41 41 36 34 32 30 32 30 30 33 32 33 31 30 31 30 29 28 28 23 27 24 22 23 28 28 26 28 30 30 27 27 26 27 28 29 26 18 17 17 18 19
38 35 33 31 32 26 27 25 27 29 32 32 31 30 30 29 31 31 29 26 24 27 23 22 23 26 27 28 27 26 24 24 24 25 22 21 21 21 17 16 18 20 18 17
31 27 24 24 23 24 28 29 31 33 33 33 32 30 29 31 29 31 27 28 26 23 21 21 24 26 27 27 27 22 22 23 21 19 17 17 17 17 19 18 17 17 16 17
28 29 20 23 26 28 27 27 30 31 34 34 31 31 31 30 29 30 27 23 22 23 21 24 28 23 25 26 24 21 20 20 20 19 19 19 19 17 16 18 19 19 18 17
29 28 25 27 26 27 26 27 28 31 35 34 32 30 28 28 29 26 23 21 19 22 26 29 26 23 25 25 21 19 18 19 18 19 19 18 18 18 20 20 18 17 17 16
25 25 29 28 27 27 28 28 29 32 33 29 30 26 26 30 26 24 25 24 27 26 25 26 25 24 25 24 17 17 17 18 19 19 19 19 22 20 17 11 15 19 19 19